Lake Charles Regional, LA

5:18 AM CST on November 21, 2017 (GMT -0600)
Lake Charles Regional

Weather History for KLCH - June, 2012

Change the Weather History Date:

Monday, June 11, 2012

  Actual Average Record
Temperature  
Mean Temperature 84 °F 81 °F  
Max Temperature 90 °F 89 °F 99 °F (1911)
Min Temperature 78 °F 72 °F 56 °F (1913)
Degree Days  
Heating Degree Days 0 0  
Month to date heating degree days 0 0  
Since 1 June heating degree days 0 0  
Since 1 July heating degree days 954 1490  
Cooling Degree Days 19 16  
Month to date cooling degree days 181 163  
Year to date cooling degree days 1070 701  
Since 1 June cooling degree days 181 163  
Growing Degree Days 34 (Base 50)    
Moisture  
Dew Point 77 °F    
Average Humidity 78    
Maximum Humidity 91    
Minimum Humidity 64    
Precipitation  
Precipitation 0.00 in 0.22 in 2.32 in (1981)
Month to date precipitation 1.74 2.22  
Year to date precipitation 33.61 23.10  
Snow  
Snow 0.00 in 0.00 in 0.00 in ()
Month to date snowfall 0.0 0.0  
Since 1 June snowfall 0.0 0.0  
Since 1 July snowfall 0.0 0.1  
Snow Depth 0.00 in    
Sea Level Pressure  
Sea Level Pressure 29.97 in    
Wind  
Wind Speed 8 mph (SSW)    
Max Wind Speed 15 mph    
Max Gust Speed 22 mph    
Visibility 7 miles    
Events      
T = Trace of Precipitation, MM = Missing Value Source: NWS Daily Summary

Daily Weather History Graph

Daily Weather History Graph

Search for Another Location

Airport or City:

Trip Planner

Search our weather history database for the weather conditions in past years. The results will help you decide how hot, cold, wet, or windy it might be!

Date:

Astronomy

Jun. 11, 2012 Rise Set
Actual Time 6:10 AM CDT 8:14 PM CDT
Civil Twilight 5:43 AM CDT 8:42 PM CDT
Nautical Twilight 5:10 AM CDT 9:15 PM CDT
Astronomical Twilight 4:34 AM CDT 9:51 PM CDT
Moon 1:02 AM CDT (6/11) 1:30 PM CDT (6/11)
Length of Visible Light 14h 58m
Length of Day
14h 03m
Waning Gibbous, 47% of the Moon is Illuminated
Jun 11
Waning Gibbous
Jun 19
New
Jun 26
First Quarter
Jul 3
Full
Jul 10
Last Quarter

Hourly Weather History & Observations

Time (CDT) Temp. Heat Index Dew Point Humidity Pressure Visibility Wind Dir Wind Speed Gust Speed Precip Events Conditions
12:53 AM 80.1 °F 85.8 °F 77.0 °F 90% 29.90 in 7.0 mi South 4.6 mph - N/A   Scattered Clouds
1:53 AM 82.0 °F 89.4 °F 75.9 °F 82% 29.91 in 8.0 mi South 5.8 mph - N/A   Mostly Cloudy
2:53 AM 82.0 °F 89.4 °F 75.9 °F 82% 29.91 in 8.0 mi SSW 6.9 mph - N/A   Partly Cloudy
3:53 AM 81.0 °F 87.3 °F 75.9 °F 85% 29.92 in 8.0 mi SSW 5.8 mph - N/A   Scattered Clouds
4:53 AM 80.1 °F 85.4 °F 75.9 °F 87% 29.94 in 9.0 mi SSW 4.6 mph - N/A   Clear
5:53 AM 80.1 °F 85.4 °F 75.9 °F 87% 29.95 in 8.0 mi Calm Calm - N/A   Clear
6:53 AM 79.0 °F - 75.9 °F 90% 29.96 in 6.0 mi Calm Calm - N/A   Clear
7:53 AM 82.4 °F 92.4 °F 78.8 °F 89% 29.95 in 7.0 mi South 6.9 mph - N/A   Partly Cloudy
8:15 AM 84.2 °F 96.1 °F 78.8 °F 84% 29.96 in 6.0 mi Variable 5.8 mph - N/A   Haze
8:53 AM 84.9 °F 96.6 °F 78.1 °F 80% 29.99 in 7.0 mi SSW 10.4 mph - N/A   Mostly Cloudy
9:12 AM 86.0 °F 99.3 °F 78.8 °F 79% 29.97 in 7.0 mi South 9.2 mph - N/A   Mostly Cloudy
9:31 AM 84.2 °F 96.1 °F 78.8 °F 84% 29.97 in 7.0 mi South 11.5 mph 17.3 mph N/A   Scattered Clouds
9:53 AM 87.1 °F 98.8 °F 77.0 °F 72% 30.00 in 7.0 mi SSW 11.5 mph 19.6 mph N/A   Scattered Clouds
10:53 AM 88.0 °F 101.3 °F 78.1 °F 72% 30.01 in 7.0 mi SSW 11.5 mph - N/A   Partly Cloudy
11:53 AM 89.1 °F 101.4 °F 77.0 °F 67% 30.02 in 8.0 mi South 9.2 mph 18.4 mph N/A   Scattered Clouds
12:53 PM 90.0 °F 102.5 °F 77.0 °F 65% 30.02 in 8.0 mi SSW 11.5 mph 17.3 mph N/A   Partly Cloudy
1:53 PM 88.0 °F 100.2 °F 77.0 °F 70% 30.01 in 8.0 mi South 16.1 mph 21.9 mph N/A   Mostly Cloudy
2:02 PM 89.6 °F 102.2 °F 77.0 °F 66% 29.98 in 8.0 mi SSW 13.8 mph 19.6 mph N/A   Mostly Cloudy
2:26 PM 89.6 °F 99.8 °F 75.2 °F 62% 29.98 in 8.0 mi SSW 13.8 mph 21.9 mph N/A   Scattered Clouds
2:53 PM 89.1 °F 100.2 °F 75.9 °F 65% 30.00 in 8.0 mi SSW 12.7 mph 20.7 mph N/A   Scattered Clouds
3:53 PM 89.1 °F 100.2 °F 75.9 °F 65% 29.99 in 8.0 mi SSW 10.4 mph 18.4 mph N/A   Partly Cloudy
4:53 PM 89.1 °F 100.2 °F 75.9 °F 65% 29.99 in 8.0 mi SSW 13.8 mph 20.7 mph N/A   Partly Cloudy
5:35 PM 87.8 °F 99.7 °F 77.0 °F 70% 29.96 in 8.0 mi South 11.5 mph - N/A   Mostly Cloudy
5:53 PM 88.0 °F 100.2 °F 77.0 °F 70% 29.99 in 8.0 mi South 9.2 mph 18.4 mph N/A   Overcast
6:32 PM 87.8 °F 97.6 °F 75.2 °F 66% 29.98 in 8.0 mi SSW 10.4 mph - N/A   Mostly Cloudy
6:53 PM 86.0 °F 96.0 °F 75.9 °F 72% 30.00 in 7.0 mi SSW 9.2 mph - N/A   Partly Cloudy
7:53 PM 84.0 °F 93.7 °F 77.0 °F 79% 29.99 in 7.0 mi South 6.9 mph - N/A   Partly Cloudy
8:53 PM 82.0 °F 90.2 °F 77.0 °F 85% 29.99 in 8.0 mi South 6.9 mph - N/A   Partly Cloudy
9:53 PM 82.0 °F 90.2 °F 77.0 °F 85% 29.99 in 6.0 mi South 8.1 mph - N/A   Haze
10:53 PM 82.0 °F 91.0 °F 78.1 °F 88% 30.01 in 6.0 mi South 3.5 mph - N/A   Overcast
11:53 PM 82.0 °F 91.0 °F 78.1 °F 88% 30.01 in 6.0 mi South 5.8 mph - N/A   Overcast